Regional Weather Roundup
Issued by NWS

Home | Current Version | Previous Version | Graphics & Text | Print | Product List | Glossary On
Versions: 1 2 3 4 5 6 7 8 9 10 11 12 13 14 15 16 17 18 19 20 21 22 23 24 25 26 27 28 29 30 31 32 33 34 35 36 37 38 39 40 41 42 43 44 45 46 47 48 49 50
000
ASUS43 KIND 162259
RWRIN

WEATHER ROUNDUP FOR INDIANA
NATIONAL WEATHER SERVICE INDIANAPOLIS IN
600 PM EST TUE JAN 16 2018

NOTE: "FAIR" INDICATES FEW OR NO CLOUDS BELOW 12,000 FEET WITH NO
SIGNIFICANT WEATHER AND/OR OBSTRUCTIONS TO VISIBILITY.

* - STATION DOES NOT REPORT WEATHER SUCH AS PRECIPITATION OR FOG.

+ - STATION NOT QUALITY CONTROLLED BY THE NATIONAL WEATHER SERVICE.
    USE DATA WITH CAUTION...ESPECIALLY DEWPOINT AND RELATIVE
    HUMIDITY OBSERVATIONS.

INZ001>003-010>013-019-020-170000-
NORTHWEST INDIANA

CITY           SKY/WX    TMP DP  RH WIND       PRES   REMARKS
GARY /AIRPORT/ MOCLDY    25  14  63 NW12      30.48R WCI  14
KNOX *+        FAIR      14   9  79 S8        30.47S WCI   3
MONTICELLO +   LGT SNOW  10   5  82 SW9       30.50S WCI  -4

$$

LMZ046-743>745-170000-
SOUTHERN LAKE MICHIGAN

STATION/POSITION TIME  TEMP    WIND        PRES    WAVE
                       AIR SEA DIR/SP/G            HT
                 (UTC) (F)     (DEG/KT/KT) (MB)    (FT)
BURNS HARBOR     2240   24     310/ 19/ 22 1031.2R
MICHIGAN CITY    2230          140/  7/  8   N/A

$$

INZ004-005-014>016-021>024-170000-
NORTH CENTRAL INDIANA

CITY           SKY/WX    TMP DP  RH WIND       PRES   REMARKS
ELKHART        FAIR      10   3  72 CALM      30.46S
GOSHEN         FAIR       4   1  88 SW6       30.46S WCI  -7
PERU/GRISSOM   FLURRIES   9   5  86 W14       30.49R WCI  -8
SOUTH BEND     CLOUDY    11   6  81 SW5       30.47R WCI   3

$$

INZ006>009-017-018-025>027-170000-
NORTHEAST INDIANA

CITY           SKY/WX    TMP DP  RH WIND       PRES   REMARKS
FORT WAYNE     FLURRIES   8   2  76 W10       30.48R WCI  -6
KENDALLVILLE + FAIR       5   0  81 W8        30.44S WCI  -8

$$

INZ028-029-035-036-043>045-051>053-170000-
WEST CENTRAL INDIANA

CITY           SKY/WX    TMP DP  RH WIND       PRES   REMARKS
GREENCASTLE +  FLURRIES   5  -2  72 W6        30.56R WCI  -6
LAFAYETTE      LGT SNOW   7   4  87 W7        30.54R FOG     WCI  -5
TERRE HAUTE    CLOUDY     6  -1  73 W7        30.60R WCI  -6

$$

INZ030>032-037>040-046>048-054>057-064-065-170000-
CENTRAL INDIANA

CITY           SKY/WX    TMP DP  RH WIND       PRES   REMARKS
INDIANAPOLIS   CLOUDY     5  -1  76 W14       30.54R WCI -12
-EAGLE CREEK   FLURRIES   6  -2  69 W8        30.53R WCI  -7
MT COMFORT *+  CLOUDY     5   1  85 W10       30.52S WCI -10
SHELBYVILLE    CLOUDY     6  -1  73 W8        30.54R WCI  -7

$$

INZ033-034-041-042-049-050-058-059-170000-
EAST CENTRAL INDIANA

CITY           SKY/WX    TMP DP  RH WIND       PRES   REMARKS
MUNCIE         LGT SNOW   7   0  73 W9        30.49S WCI  -7
RICHMOND +     FLURRIES   5   0  78 W12       30.48S WCI -11

$$

INZ060-061-067>069-081>083-085>088-170000-
SOUTHWEST INDIANA

CITY           SKY/WX    TMP DP  RH WIND       PRES   REMARKS
EVANSVILLE     FLURRIES   7  -1  70 NW7       30.66R WCI  -5
HUNTINGBURG +  FLURRIES   6  -1  73 NW10      30.63R WCI  -9

$$

INZ062-063-066-070>080-084-089>092-170000-
SOUTH CENTRAL AND SOUTHEAST INDIANA

CITY           SKY/WX    TMP DP  RH WIND       PRES   REMARKS
BLOOMINGTON    LGT SNOW   4  -2  76 W6        30.56R WCI  -7
FRENCH LICK *+ CLOUDY     5  -4  66 W6        30.58S WCI  -6
MADISON *+     CLOUDY    10   0  61 CALM      30.56R
SEYMOUR +      FLURRIES   9   0  66 W13       30.58R WCI  -7

$$




USA.gov is the U.S. government's official web portal to all federal, state and local government web resources and services.